Weather reports worldwide

Advertisment
Nürnberg, Germany (10763): temperature & dewpoint: 28.06.2020 23:00:00 - 04.07.2020 23:00:00 (CEST)Nürnberg, Germany (10763): temperature 5cm & temperature -5cm: 28.06.2020 23:00:00 - 04.07.2020 23:00:00 (CEST)Nürnberg, Germany (10763): temperature -20cm & temperature -100cm: 28.06.2020 23:00:00 - 04.07.2020 23:00:00 (CEST)Nürnberg, Germany (10763): wind speed & gusts: 28.06.2020 23:00:00 - 04.07.2020 23:00:00 (CEST)Nürnberg, Germany (10763): wind direction: 28.06.2020 23:00:00 - 04.07.2020 23:00:00 (CEST)Nürnberg, Germany (10763): reduced air pressure: 28.06.2020 23:00:00 - 04.07.2020 23:00:00 (CEST)Nürnberg, Germany (10763): visibility: 28.06.2020 23:00:00 - 04.07.2020 23:00:00 (CEST)Nürnberg, Germany (10763): sunshine duration: 28.06.2020 23:00:00 - 04.07.2020 23:00:00 (CEST)Nürnberg, Germany (10763): precipitation: 28.06.2020 23:00:00 - 04.07.2020 23:00:00 (CEST)
Date & Time tt [°C] td [°C] tt 5cm [°C] tt -5cm [°C] tt -20cm [°C] tt -100cm [°C] ff [km/h] ff [kn] fx [km/h] fx [kn] dd ppp [hPa] vv [km] sd [min] rr [mm]
04.07.2020 23:00:00 20,9 10,8 19,3 25,0 25,9 19,0 9 5 14 8 WSW 1016,9 50 0 0,0
04.07.2020 22:00:00 21,6 10,3 20,1 26,3 26,3 19,0 9 5 18 10 SW 1016,5 10 0 0,0
04.07.2020 21:00:00 22,8 10,3 21,4 28,0 26,5 19,0 11 6 22 12 W 1016,4 10 14 0,0
04.07.2020 20:00:00 24,7 9,6 25,1 30,3 26,5 19,0 17 9 26 14 W 1016,0 50 60 0,0
04.07.2020 19:00:00 25,3 9,5 26,8 31,8 26,3 19,0 20 11 34 18 WSW 1015,9 65 59 0,0
04.07.2020 18:00:00 25,3 10,0 28,3 32,7 25,9 19,0 22 12 36 20 SW 1016,2 65 59 0,0
04.07.2020 17:00:00 25,7 10,5 29,2 33,2 25,3 19,0 18 10 35 19 SW 1016,2 65 58 0,0
04.07.2020 16:00:00 24,7 9,9 28,1 33,2 24,6 19,0 19 10 35 19 SW 1016,8 65 53 0,0
04.07.2020 15:00:00 24,1 9,5 28,1 32,5 23,8 19,0 14 8 31 17 SW 1017,4 65 41 0,0
04.07.2020 14:00:00 23,5 8,7 29,7 30,7 23,0 19,0 18 10 31 17 SW 1018,0 65 31 0,0
04.07.2020 13:00:00 23,7 9,6 28,9 30,5 22,1 19,0 22 12 35 19 SW 1018,4 10 51 0,0
04.07.2020 12:00:00 22,7 8,8 27,9 28,1 21,2 19,0 21 11 35 19 SW 1018,9 50 55 0,0
04.07.2020 11:00:00 21,7 10,0 24,6 24,9 20,6 19,0 18 10 31 17 W 1019,2 50 60 0,0
04.07.2020 10:00:00 20,0 10,9 21,7 21,6 20,3 19,0 4 2 13 7 - 1019,8 10 60 0,0
04.07.2020 09:00:00 17,3 10,4 18,4 19,1 20,2 19,0 5 3 8 4 S 1020,3 10 59 0,0
04.07.2020 08:00:00 14,9 11,1 16,2 17,4 20,4 19,0 8 4 11 6 ESE 1020,3 10 60 0,0
04.07.2020 07:00:00 12,3 9,6 12,2 16,4 20,8 19,0 11 6 15 8 E 1020,4 10 60 0,0
04.07.2020 06:00:00 10,4 9,0 9,6 16,6 21,3 19,0 14 8 15 8 E 1020,5 50 10 0,0
04.07.2020 05:00:00 10,5 9,0 9,4 17,2 21,8 19,0 15 8 16 9 E 1020,3 10 0 0,0
04.07.2020 04:00:00 10,6 8,9 8,6 17,9 22,3 19,0 4 2 11 6 - 1020,4 10 0 0,0
04.07.2020 03:00:00 11,8 9,5 10,6 18,6 22,8 19,0 13 7 15 8 E 1020,3 50 0 0,0
04.07.2020 02:00:00 12,7 9,7 11,3 19,4 23,4 19,0 12 6 15 8 E 1020,3 50 0 0,0
04.07.2020 01:00:00 12,9 9,7 11,7 20,4 23,9 19,0 13 7 16 9 E 1020,0 10 0 0,0
04.07.2020 00:00:00 14,1 9,6 12,2 21,4 24,5 19,0 11 6 13 7 E 1019,9 50 0 0,0
03.07.2020 23:00:00 14,9 9,4 12,0 22,7 25,0 19,0 3 2 8 4 E 1019,5 50 0 0,0
03.07.2020 22:00:00 17,3 9,4 14,4 24,4 25,4 19,0 0 0 9 5 N 1018,9 50 20 0,0
03.07.2020 21:00:00 20,4 8,7 19,1 26,2 25,7 19,0 9 5 22 12 NW 1018,1 10 60 0,0
03.07.2020 20:00:00 21,3 8,1 21,3 27,9 25,9 19,0 15 8 26 14 WNW 1017,5 10 26 0,0
03.07.2020 19:00:00 22,1 8,2 24,5 30,3 25,7 19,0 11 6 29 15 NW 1017,2 50 55 0,0
03.07.2020 18:00:00 22,7 8,6 26,1 30,8 25,4 19,0 13 7 27 14 WNW 1017,1 10 31 0,0
03.07.2020 17:00:00 22,3 7,6 26,8 32,8 24,8 19,0 19 11 31 17 W 1017,3 50 60 0,0
03.07.2020 16:00:00 22,5 8,3 27,4 30,7 24,3 19,0 21 11 32 17 W 1017,5 50 29 0,0
03.07.2020 15:00:00 20,7 8,3 22,9 31,0 23,7 19,0 16 9 31 17 WNW 1018,0 50 27 0,0
03.07.2020 14:00:00 20,8 7,6 23,8 31,0 22,9 19,0 18 10 30 16 WNW 1018,3 50 50 0,0
03.07.2020 13:00:00 20,7 9,1 25,7 28,6 22,2 19,0 16 9 29 16 W 1018,2 10 41 0,0
03.07.2020 12:00:00 19,7 8,2 24,2 26,7 21,5 19,0 17 9 34 18 W 1018,4 65 41 0,0
03.07.2020 11:00:00 19,7 10,3 23,4 24,9 20,9 19,0 20 11 29 16 W 1018,2 60 44 0,0
03.07.2020 10:00:00 17,7 9,8 18,9 22,6 20,5 19,0 15 8 22 12 W 1018,3 10 42 0,0
03.07.2020 09:00:00 17,5 11,2 19,9 19,6 20,4 19,0 12 7 18 10 WNW 1018,1 60 56 0,0
03.07.2020 08:00:00 16,0 11,8 17,3 18,3 20,5 19,0 13 7 18 10 W 1017,7 10 60 0,0
03.07.2020 07:00:00 15,4 12,1 15,4 17,6 20,8 18,9 8 4 9 5 W 1017,6 10 49 0,0
03.07.2020 06:00:00 14,0 12,1 12,1 17,3 21,1 18,9 2 1 9 5 W 1017,3 35 6 0,0
03.07.2020 05:00:00 14,4 12,1 13,1 17,9 21,5 18,9 5 3 16 9 WSW 1016,7 10 0 0,0
03.07.2020 04:00:00 15,0 12,2 14,3 18,3 21,9 18,9 13 7 17 9 WNW 1015,7 10 0 0,0
03.07.2020 03:00:00 15,3 12,1 13,9 18,7 22,3 18,9 11 6 21 11 WNW 1015,8 10 0 0,0
03.07.2020 02:00:00 15,9 12,3 14,3 19,4 22,7 18,9 8 4 18 10 WNW 1015,8 10 0 0,0
03.07.2020 01:00:00 16,7 11,7 14,8 20,0 23,2 18,9 9 5 22 12 WNW 1015,0 10 0 0,0
03.07.2020 00:00:00 17,6 11,1 16,1 20,9 23,6 18,9 16 9 31 17 W 1014,4 60 0 0,0
02.07.2020 23:00:00 18,6 12,3 17,4 21,9 24,0 18,9 9 5 18 10 SW 1013,5 10 0 0,0
02.07.2020 22:00:00 19,5 13,2 18,4 23,2 24,4 18,9 9 5 16 9 SSW 1012,7 10 0 0,0
02.07.2020 21:00:00 20,7 12,9 19,9 24,6 24,6 18,9 13 7 24 13 SW 1012,3 10 31 0,0
02.07.2020 20:00:00 21,5 12,5 21,4 25,9 24,6 18,9 16 9 31 17 WSW 1011,6 10 15 0,0
02.07.2020 19:00:00 22,8 11,9 24,5 27,5 24,5 18,9 21 11 32 17 WSW 1011,1 10 44 0,0
02.07.2020 18:00:00 22,4 13,3 23,1 27,5 24,4 18,8 21 11 31 17 W 1011,1 10 13 0,0
02.07.2020 17:00:00 22,5 13,7 23,9 28,0 24,1 18,8 14 8 28 15 WSW 1011,3 60 10 0,0
02.07.2020 16:00:00 22,5 13,0 24,6 28,1 23,6 18,8 16 9 28 15 W 1011,5 60 5 0,0
02.07.2020 15:00:00 22,4 14,5 25,2 29,4 23,1 18,8 10 6 16 9 SSW 1011,7 60 36 0,0
02.07.2020 14:00:00 21,1 14,4 24,1 26,4 22,8 18,8 8 4 16 9 SW 1012,2 10 20 0,0
02.07.2020 13:00:00 19,5 14,8 22,0 23,1 22,8 18,8 9 5 14 7 W 1012,8 30 0 0,0
02.07.2020 12:00:00 18,4 15,0 17,9 22,3 22,9 18,8 11 6 15 8 NW 1013,0 10 0 0,1
02.07.2020 11:00:00 19,0 14,5 19,6 23,3 22,8 18,8 11 6 21 11 WNW 1012,6 10 5 0,0
02.07.2020 10:00:00 20,7 16,0 24,0 23,1 22,7 18,7 11 6 29 15 NW 1011,8 10 18 0,0
02.07.2020 09:00:00 19,8 15,4 20,8 22,6 22,7 18,7 18 10 26 14 NW 1011,7 10 47 0,0
02.07.2020 08:00:00 19,9 16,8 19,2 21,4 22,8 18,7 13 7 18 10 WSW 1011,6 10 57 0,0
02.07.2020 07:00:00 18,7 17,2 18,5 20,4 23,2 18,7 8 4 11 6 S 1011,2 10 23 0,0
02.07.2020 06:00:00 17,5 16,6 16,9 20,5 23,6 18,7 7 4 13 7 SE 1010,9 30 0 0,0
02.07.2020 05:00:00 17,5 16,7 17,1 21,0 24,0 18,7 9 5 13 7 ESE 1010,9 10 0 0,0
02.07.2020 04:00:00 17,5 16,7 17,5 21,5 24,5 18,7 8 4 13 7 E 1010,7 10 0 0,0
02.07.2020 03:00:00 17,8 17,0 17,6 22,0 25,0 18,7 9 5 12 6 ESE 1010,8 25 0 0,0
02.07.2020 02:00:00 17,9 16,7 17,5 22,6 25,6 18,7 9 5 22 12 SSW 1011,3 8 0 1,7
02.07.2020 01:00:00 19,4 15,9 18,3 23,7 26,2 18,7 17 9 23 12 SSE 1010,4 40 0 0,0
02.07.2020 00:00:00 20,5 17,6 19,5 25,1 26,7 18,7 6 3 38 21 SSW 1009,4 30 0 1,9
01.07.2020 23:00:00 21,2 15,8 20,8 27,0 27,1 18,7 2 1 8 4 - 1008,1 10 0 0,0
01.07.2020 22:00:00 23,1 16,1 20,3 28,3 27,5 18,7 5 3 15 8 WNW 1007,6 10 23 0,0
01.07.2020 21:00:00 26,0 14,5 24,5 30,2 27,7 18,7 11 6 24 13 W 1007,1 10 60 0,0
01.07.2020 20:00:00 27,7 14,2 27,8 32,3 27,6 18,7 16 9 28 15 W 1006,7 50 56 0,0
01.07.2020 19:00:00 28,7 14,0 30,5 33,8 27,4 18,7 15 8 33 18 WSW 1006,7 10 57 0,0
01.07.2020 18:00:00 29,2 13,5 31,8 34,7 27,0 18,7 16 9 35 19 WSW 1006,6 10 53 0,0
01.07.2020 17:00:00 27,9 13,1 28,6 35,7 26,4 18,7 17 9 35 19 W 1007,1 50 46 0,0
01.07.2020 16:00:00 28,6 13,7 32,9 35,7 25,5 18,7 18 10 32 17 WSW 1007,2 50 47 0,0
01.07.2020 15:00:00 28,6 14,9 33,6 35,1 24,5 18,7 13 7 29 16 WSW 1007,6 50 51 0,0
01.07.2020 14:00:00 27,5 14,5 33,6 34,0 23,5 18,7 14 7 29 15 SW 1008,3 50 59 0,0
01.07.2020 13:00:00 26,1 13,7 30,7 31,9 22,4 18,7 17 9 33 18 SSW 1009,0 50 60 0,0
01.07.2020 12:00:00 25,2 13,8 29,3 29,3 21,5 18,7 19 10 29 16 SW 1009,5 50 58 0,0
01.07.2020 11:00:00 23,8 14,4 27,1 26,2 20,8 18,7 14 8 31 17 S 1010,2 50 60 0,0
01.07.2020 10:00:00 22,4 13,8 25,0 23,1 20,3 18,7 17 9 26 14 SSW 1010,7 50 60 0,0
01.07.2020 09:00:00 21,1 14,0 23,1 20,3 20,1 18,7 10 6 17 9 S 1011,3 50 60 0,0
01.07.2020 08:00:00 18,4 13,3 19,6 18,4 20,2 18,7 8 4 11 6 ESE 1011,6 10 60 0,0
01.07.2020 07:00:00 14,5 11,9 14,6 17,3 20,5 18,7 9 5 13 7 E 1012,2 45 56 0,0
01.07.2020 06:00:00 12,8 11,0 12,0 17,3 20,9 18,7 11 6 13 7 E 1012,3 10 2 0,0
01.07.2020 05:00:00 12,8 11,1 11,6 17,8 21,3 18,7 11 6 11 6 ESE 1012,3 10 0 0,0
01.07.2020 04:00:00 13,2 11,1 12,1 18,3 21,6 18,7 11 6 13 7 ESE 1012,3 10 0 0,0
01.07.2020 03:00:00 13,9 11,2 12,1 18,9 22,1 18,7 8 4 9 5 E 1012,4 10 0 0,0
01.07.2020 02:00:00 14,8 11,3 12,9 19,5 22,5 18,7 5 3 8 4 SSE 1012,4 45 0 0,0
01.07.2020 01:00:00 16,2 11,6 12,8 20,2 22,9 18,7 4 2 8 4 S 1012,4 55 0 0,0
01.07.2020 00:00:00 16,1 11,3 14,0 21,0 23,3 18,7 5 3 9 5 S 1012,5 10 0 0,0
30.06.2020 23:00:00 18,0 11,5 14,7 21,9 23,7 18,7 6 3 8 4 SW 1012,2 65 0 0,0
30.06.2020 22:00:00 18,4 11,8 14,4 23,1 24,1 18,7 5 3 15 8 W 1011,9 10 17 0,0
30.06.2020 21:00:00 20,2 11,5 19,6 24,5 24,3 18,7 9 5 28 15 W 1011,4 10 9 0,0
30.06.2020 20:00:00 21,0 11,1 21,4 25,5 24,5 18,7 15 8 27 14 W 1011,3 10 3 0,0
30.06.2020 19:00:00 21,0 10,2 21,2 26,5 24,5 18,7 16 9 27 15 W 1011,3 50 2 0,0
30.06.2020 18:00:00 21,2 9,9 22,0 27,4 24,5 18,7 17 9 28 15 W 1011,4 50 0 0,0
30.06.2020 17:00:00 21,4 10,2 22,5 28,8 24,2 18,7 19 10 35 19 W 1011,7 50 5 0,0
30.06.2020 16:00:00 21,8 9,5 24,5 30,1 23,7 18,7 24 13 35 19 W 1011,7 50 23 0,0
30.06.2020 15:00:00 21,4 9,2 24,7 30,4 23,0 18,7 20 11 37 20 WSW 1011,8 50 31 0,0
30.06.2020 14:00:00 22,0 9,2 27,9 29,8 22,2 18,7 18 10 35 19 W 1012,1 10 52 0,0
30.06.2020 13:00:00 20,2 8,0 23,9 28,1 21,5 18,7 21 11 36 19 WSW 1012,8 10 40 0,0
30.06.2020 12:00:00 19,7 7,8 21,6 26,4 20,9 18,7 22 12 39 21 W 1013,2 50 47 0,0
30.06.2020 11:00:00 19,4 7,6 21,0 23,9 20,3 18,7 24 13 36 20 W 1013,5 10 37 0,0
30.06.2020 10:00:00 18,6 7,6 20,9 21,8 20,0 18,7 22 12 37 20 SW 1013,7 10 60 0,0
30.06.2020 09:00:00 18,0 10,0 19,7 19,2 19,8 18,7 19 10 29 15 SW 1013,8 50 60 0,0
30.06.2020 08:00:00 16,4 11,0 17,4 17,7 20,0 18,7 13 7 19 10 SSW 1014,0 50 60 0,0
30.06.2020 07:00:00 13,9 11,7 13,6 16,8 20,3 18,7 8 4 13 7 SSW 1014,4 10 12 0,0
30.06.2020 06:00:00 12,8 11,5 11,7 16,9 20,6 18,7 8 4 14 7 S 1014,2 10 1 0,0
30.06.2020 05:00:00 13,4 12,0 12,6 17,3 21,0 18,8 8 4 9 5 SSW 1013,9 10 0 0,0
30.06.2020 04:00:00 13,4 11,6 11,7 17,6 21,4 18,8 5 3 9 5 S 1013,8 40 0 0,0
30.06.2020 03:00:00 14,3 11,9 12,2 18,3 21,9 18,8 9 5 14 8 WSW 1013,7 10 0 0,0
30.06.2020 02:00:00 15,0 12,0 13,4 19,1 22,3 18,8 5 3 13 7 SSE 1013,6 10 0 0,0
30.06.2020 01:00:00 15,4 11,7 13,9 20,1 22,8 18,8 8 4 16 9 S 1013,5 60 0 0,0
30.06.2020 00:00:00 16,7 11,5 15,7 21,1 23,1 18,8 13 7 21 11 SSW 1013,1 60 0 0,0
29.06.2020 23:00:00 18,5 11,7 18,0 22,3 23,5 18,8 9 5 21 11 SSW 1012,8 10 0 0,0
29.06.2020 22:00:00 19,2 11,3 18,9 23,2 23,8 18,8 9 5 16 9 S 1012,6 10 0 0,0
29.06.2020 21:00:00 19,6 10,7 19,2 24,4 23,9 18,8 9 5 16 9 SW 1012,1 10 34 0,0
29.06.2020 20:00:00 21,1 12,5 22,3 25,6 24,0 18,8 3 1 16 9 S 1012,0 65 25 0,0
29.06.2020 19:00:00 19,2 11,7 19,9 26,7 24,0 18,8 13 7 37 20 NNW 1012,4 10 35 0,0
29.06.2020 18:00:00 18,8 11,8 18,7 27,3 23,8 18,8 26 14 50 27 W 1012,8 60 7 0,0
29.06.2020 17:00:00 21,8 10,5 25,2 29,5 23,2 18,8 13 7 29 16 NW 1011,9 10 27 0,0
29.06.2020 16:00:00 22,6 10,1 27,5 30,6 22,4 18,8 16 9 34 18 W 1012,3 10 53 0,0
29.06.2020 15:00:00 21,6 10,0 26,3 28,4 21,6 18,8 16 9 34 18 WSW 1012,9 10 45 0,0
29.06.2020 14:00:00 20,7 11,6 24,8 26,0 21,1 18,8 18 10 34 18 W 1013,6 10 40 0,0
29.06.2020 13:00:00 19,2 10,9 22,1 23,9 20,7 18,8 22 12 32 17 W 1014,1 10 26 0,0
29.06.2020 12:00:00 18,5 11,9 19,9 21,8 20,4 18,8 22 12 35 19 W 1014,3 10 21 0,0
29.06.2020 11:00:00 17,1 12,0 18,1 21,4 20,1 18,8 13 7 20 11 W 1014,7 10 27 0,0
29.06.2020 10:00:00 15,5 12,6 15,9 18,7 20,2 18,8 5 3 13 7 W 1014,8 35 0 0,0
29.06.2020 09:00:00 15,0 12,1 15,0 18,4 20,3 18,8 5 3 15 8 WNW 1014,5 30 3 0,0
29.06.2020 08:00:00 14,8 12,9 14,9 17,7 20,4 18,8 8 4 14 7 W 1014,8 10 0 0,0
29.06.2020 07:00:00 14,5 12,3 14,1 17,8 20,7 18,8 6 4 13 7 W 1015,0 30 0 0,0
29.06.2020 06:00:00 14,6 13,0 14,3 17,9 20,9 18,8 5 3 8 4 SW 1015,1 10 0 0,0
29.06.2020 05:00:00 14,4 12,8 14,0 18,0 21,2 18,8 2 1 12 7 - 1015,1 10 0 0,0
29.06.2020 04:00:00 14,7 13,3 14,4 18,3 21,5 18,7 5 3 11 6 SW 1015,9 40 0 0,0
29.06.2020 03:00:00 14,8 13,0 14,3 18,5 21,8 18,7 8 4 18 10 WSW 1016,3 40 0 0,2
29.06.2020 02:00:00 15,1 13,0 14,4 18,9 22,2 18,7 8 4 24 13 WSW 1016,5 10 0 1,1
29.06.2020 01:00:00 16,9 12,5 15,5 19,6 22,5 18,7 9 5 16 9 WSW 1016,4 10 0 0,0
29.06.2020 00:00:00 16,9 12,7 16,2 19,8 22,9 18,7 3 2 15 8 SSE 1016,0 50 0 0,0
28.06.2020 23:00:00 17,8 11,7 16,7 20,2 23,4 18,7 10 6 16 9 NW 1016,1 50 0 0,0

tt = temperature
td = dewpoint
tt 5cm = temperature 5cm
tt -5cm = temperature -5cm
tt -20cm = temperature -20cm
tt -100cm = temperature -100cm
ff = wind speed
fx = gusts
dd = wind direction
ppp = reduced air pressure
vv = visibility
sd = sunshine duration
rr = precipitation

Next stations